Orbital Elements at Epoch 2459200.5 (2020-Dec-17.0) TDB
Reference: JPL 25 (heliocentric ecliptic J2000)
Element | Value | Uncertainty (1-sigma) | Units |
e | .1918177906784052 | 4.7635e-08 | |
a | 2.558711149068928 | 1.1016e-08 | au |
q | 2.067904829470323 | 1.2406e-07 | au |
i | 14.02855961871187 | 4.433e-06 | deg |
node | 43.88159139682613 | 2.1413e-05 | deg |
peri | 265.463212842993 | 2.4117e-05 | deg |
M | 300.432659630402 | 1.2809e-05 | deg |
tp | 2459447.863733969352 (2021-Aug-21.36373397) | 5.3596e-05 | TDB |
period | 1494.962569697276 4.09 | 9.6544e-06 2.643e-08 | d yr |
n | .2408087047108468 | 1.5551e-09 | deg/d |
Q | 3.049517468667533 | 1.3129e-08 | au |
|
| | Orbit Determination Parameters
Additional Information
|